Location: Newark
(48.0000°N, 67.0000°E)
Time: 16:04:25
(UTC+00:00)

N. Korean satellite - Pass Details

Date: 31 January 2020
Orbit: 456 x 506 km, 97.2° (Epoch: 17 February)

Event Time Altitude Azimuth Distance (km) Brightness Sun altitude
Rises 01:33:00 0° 11° (N) 2,557 10.3 -15.0°
Reaches altitude 10° 01:35:04 10° 10° (N) 1,680 9.3 -14.6°
Maximum altitude 01:38:40 78° 285° (WNW) 509 6.5 -14.1°
Drops below altitude 10° 01:42:19 10° 198° (SSW) 1,692 9.2 -13.5°
Sets 01:44:24 0° 197° (SSW) 2,577 10.2 -13.1°
